TimeCDT,TemperatureF,Dew PointF,Humidity,Sea Level PressureIn,VisibilityMPH,Wind Direction,Wind SpeedMPH,Gust SpeedMPH,PrecipitationIn,Events,Conditions,WindDirDegrees,DateUTC
12:17 AM,48.2,46.4,93,29.95,10.0,West,3.5,-,N/A,,Overcast,260,2013-10-17 05:17:00
12:37 AM,48.2,46.4,93,29.94,10.0,Calm,Calm,-,N/A,,Overcast,0,2013-10-17 05:37:00
12:54 AM,48.0,46.9,96,29.95,10.0,Calm,Calm,-,N/A,,Overcast,0,2013-10-17 05:54:00
1:42 AM,48.2,46.4,93,29.94,10.0,WSW,3.5,-,N/A,,Overcast,250,2013-10-17 06:42:00
1:54 AM,48.0,46.9,96,29.95,10.0,WSW,3.5,-,N/A,,Overcast,250,2013-10-17 06:54:00
2:54 AM,48.0,46.0,93,29.93,10.0,Calm,Calm,-,N/A,,Overcast,0,2013-10-17 07:54:00
3:14 AM,48.2,46.4,93,29.93,10.0,SSW,3.5,-,N/A,,Overcast,210,2013-10-17 08:14:00
3:30 AM,48.2,46.4,93,29.92,10.0,SW,5.8,-,N/A,,Overcast,220,2013-10-17 08:30:00
3:54 AM,48.0,46.0,93,29.93,10.0,SW,3.5,-,N/A,,Overcast,220,2013-10-17 08:54:00
4:54 AM,48.0,46.0,93,29.92,7.0,SW,4.6,-,0.01,Rain,Light Rain,220,2013-10-17 09:54:00
5:54 AM,48.0,46.0,93,29.91,9.0,Calm,Calm,-,0.00,Rain,Light Rain,0,2013-10-17 10:54:00
6:54 AM,48.0,46.0,93,29.90,4.0,West,4.6,-,0.01,Rain,Light Rain,270,2013-10-17 11:54:00
7:54 AM,48.0,46.0,93,29.90,4.0,West,3.5,-,0.06,Rain,Light Rain,270,2013-10-17 12:54:00
8:20 AM,48.2,46.4,93,29.89,4.0,West,6.9,-,0.01,Rain,Light Rain,260,2013-10-17 13:20:00
8:46 AM,48.2,46.4,93,29.89,5.0,West,9.2,-,0.04,Rain,Light Rain,260,2013-10-17 13:46:00
8:54 AM,46.9,46.0,97,29.90,4.0,West,9.2,-,0.05,Rain,Rain,260,2013-10-17 13:54:00
9:05 AM,46.4,46.4,100,29.89,5.0,West,10.4,-,0.02,Rain,Light Rain,260,2013-10-17 14:05:00
9:54 AM,46.9,45.0,93,29.90,5.0,West,8.1,-,0.06,Rain,Light Rain,270,2013-10-17 14:54:00
10:12 AM,46.4,44.6,93,29.90,5.0,West,8.1,-,0.02,Rain,Light Rain,270,2013-10-17 15:12:00
10:43 AM,48.2,46.4,93,29.90,6.0,West,8.1,-,0.03,Rain,Light Rain,280,2013-10-17 15:43:00
10:54 AM,48.0,46.0,93,29.91,5.0,West,10.4,-,0.04,Rain,Light Rain,280,2013-10-17 15:54:00
11:25 AM,48.2,44.6,87,29.90,7.0,West,8.1,-,0.01,Rain,Light Rain,280,2013-10-17 16:25:00
11:49 AM,48.2,44.6,87,29.89,10.0,West,8.1,-,0.01,Rain,Light Rain,270,2013-10-17 16:49:00
11:54 AM,48.0,45.0,89,29.90,9.0,West,9.2,-,0.01,Rain,Light Rain,260,2013-10-17 16:54:00
12:54 PM,48.9,45.0,86,29.89,10.0,WNW,9.2,-,0.01,Rain,Light Rain,290,2013-10-17 17:54:00
1:54 PM,51.1,44.1,77,29.88,10.0,WNW,13.8,17.3,0.00,,Mostly Cloudy,290,2013-10-17 18:54:00
2:27 PM,51.8,42.8,71,29.87,10.0,WNW,12.7,-,N/A,,Mostly Cloudy,300,2013-10-17 19:27:00
2:54 PM,53.1,44.1,71,29.88,10.0,WNW,11.5,-,N/A,,Mostly Cloudy,290,2013-10-17 19:54:00
3:54 PM,53.1,41.0,64,29.87,10.0,WNW,10.4,-,N/A,,Scattered Clouds,300,2013-10-17 20:54:00
4:54 PM,54.0,39.0,57,29.86,10.0,West,8.1,-,N/A,,Scattered Clouds,270,2013-10-17 21:54:00
5:54 PM,52.0,39.0,61,29.87,10.0,West,3.5,-,N/A,,Scattered Clouds,280,2013-10-17 22:54:00
6:54 PM,46.9,42.1,83,29.88,10.0,Calm,Calm,-,N/A,,Scattered Clouds,0,2013-10-17 23:54:00
7:54 PM,44.1,41.0,89,29.89,10.0,Calm,Calm,-,N/A,,Clear,0,2013-10-18 00:54:00
8:54 PM,43.0,39.9,89,29.89,10.0,SSE,3.5,-,N/A,,Mostly Cloudy,160,2013-10-18 01:54:00
9:54 PM,42.1,39.0,89,29.89,10.0,SSE,3.5,-,N/A,,Mostly Cloudy,160,2013-10-18 02:54:00
10:54 PM,42.1,39.0,89,29.88,10.0,Calm,Calm,-,N/A,,Mostly Cloudy,0,2013-10-18 03:54:00
11:54 PM,41.0,37.9,89,29.88,10.0,Calm,Calm,-,N/A,,Scattered Clouds,0,2013-10-18 04:54:00